Location: Unspecified
(0.0000°N, 0.0000°E)
Time: 13:07:03
(UTC+00:00)

NNS O-23 - Pass Details

Date: 08 June 2023
Orbit: 1014 x 1297 km, 90.3° (Epoch: 23 September)

Event Time Altitude Azimuth Distance (km) Brightness Sun altitude
Rises 18:30:29 0° 350° (N) 3,885 11.6 -7.2°
Reaches altitude 10° 18:33:14 10° 343° (NNW) 2,894 11.1 -7.9°
Maximum altitude 18:39:18 40° 275° (W) 1,476 9.6 -9.2°
Drops below altitude 10° 18:45:11 10° 207° (SSW) 2,803 10.5 -10.6°
Sets 18:47:50 0° 199° (SSW) 3,750 11.0 -11.2°
